Total_Precipitation_Accumulation
2.65 2.95 2.94 3.13 2.75 2.69 2.83 2.80 2.57 2.44 2.20 2.01 1.92 1.86 1.95 1.99 2.04 2.33 2.44 2.40 2.69 3.29 3.86 4.12 4.18 4.12 4.03 3.84 3.65 3.50 3.19 2.99 2.80 2.52 2.21 1.95 1.83 1.75 1.75 1.80 1.80 1.70 1.72
3.05 3.38 3.51 3.55 3.31 3.34 3.53 3.59 3.33 3.07 2.79 2.70 2.45 2.39 2.32 2.35 2.53 2.60 2.57 2.52 2.52 2.75 3.42 3.91 4.22 4.41 4.39 4.11 3.77 3.61 3.44 3.23 3.06 2.79 2.52 2.30 2.16 2.03 1.89 1.85 1.87 1.79 1.68
3.61 3.70 4.04 4.01 3.79 3.79 3.85 3.84 4.03 3.95 3.41 3.09 2.96 2.92 2.83 2.72 2.90 3.02 3.11 2.98 2.72 2.69 2.94 3.45 3.79 3.99 4.16 4.23 4.05 3.86 3.76 3.42 3.13 2.90 2.71 2.55 2.46 2.35 2.17 1.99 1.96 1.96 1.82
3.95 3.99 4.03 4.12 4.05 4.02 4.34 4.52 4.42 4.33 4.07 3.68 3.54 3.31 3.14 3.16 2.96 2.97 3.08 2.97 2.97 2.67 2.53 2.68 3.03 3.20 3.60 4.08 4.27 4.26 4.08 3.77 3.41 3.15 3.02 2.88 2.69 2.48 2.31 2.15 2.06 2.03 1.94
4.45 4.51 4.49 4.64 4.49 4.55 4.56 4.41 4.81 4.76 4.61 4.19 3.72 3.51 3.20 3.15 3.02 2.71 2.74 2.75 2.77 2.65 2.54 2.42 2.69 2.94 3.26 3.77 4.20 4.41 4.33 4.12 3.84 3.57 3.42 3.27 3.06 2.75 2.47 2.31 2.24 2.14 2.11
5.25 5.26 5.22 5.26 5.12 4.98 4.91 4.88 4.98 4.75 4.57 4.28 3.73 3.45 3.11 2.75 2.68 2.66 2.41 2.55 2.50 2.29 2.40 2.46 2.59 2.52 2.95 3.31 3.78 4.15 4.22 4.25 4.12 3.77 3.51 3.47 3.34 3.08 2.81 2.63 2.49 2.36 2.31
5.76 5.63 5.47 5.61 5.46 5.20 4.97 4.95 4.92 4.79 4.42 4.38 4.39 3.90 3.17 2.72 2.48 2.29 2.33 2.41 2.24 2.21 2.50 2.52 2.46 2.38 2.38 2.71 3.04 3.43 3.81 4.09 4.29 4.21 3.98 3.79 3.47 3.15 2.97 2.88 2.81 2.65 2.46
6.09 5.90 5.93 5.76 5.58 5.46 5.18 4.96 4.92 4.81 4.44 4.48 4.48 4.45 3.64 3.05 2.38 1.86 1.99 2.04 2.03 2.11 2.20 2.17 2.16 2.25 2.26 2.36 2.35 2.80 3.33 3.64 4.07 4.28 4.21 3.87 3.57 3.24 3.14 3.11 3.07 2.96 2.84
6.34 6.24 6.23 5.96 5.75 5.49 5.14 4.86 4.74 4.66 4.52 4.50 4.36 4.47 3.89 3.17 2.62 2.11 1.82 1.73 1.82 1.98 1.98 2.09 2.05 2.09 2.16 2.34 2.40 2.42 2.60 2.69 3.18 3.71 3.89 3.88 3.73 3.44 3.28 3.27 3.26 3.20 3.16
5.69 5.62 5.67 5.56 5.38 5.06 4.83 4.49 4.38 4.34 4.48 4.29 4.24 4.01 3.71 3.35 3.12 2.67 2.21 1.93 1.88 1.88 1.92 1.94 1.97 2.07 2.13 2.26 2.38 2.33 2.25 2.16 2.37 2.79 3.13 3.23 3.25 3.16 3.13 3.17 3.22 3.29 3.29
4.89 4.71 4.75 4.67 4.52 4.32 4.15 4.10 4.15 4.05 3.97 3.81 3.72 3.75 3.78 3.68 3.29 2.94 2.56 2.25 2.12 1.99 1.99 2.00 2.13 2.16 2.13 2.19 2.22 2.16 2.16 2.03 1.99 2.20 2.44 2.62 2.82 2.96 3.00 3.01 3.00 3.12 3.25
4.33 3.98 3.87 3.80 3.63 3.46 3.47 3.51 3.62 3.58 3.63 3.63 3.54 3.41 3.41 3.40 3.18 3.08 2.74 2.43 2.37 2.15 2.06 2.00 1.98 2.06 2.12 2.14 2.07 2.23 1.94 1.80 1.72 1.77 1.94 2.15 2.41 2.64 2.75 2.86 3.00 3.12 3.21
3.71 3.40 3.21 3.17 3.05 2.97 2.97 3.15 3.28 3.23 3.20 3.26 3.23 3.13 3.08 3.00 2.96 2.96 3.05 2.78 2.44 2.12 2.06 1.94 1.81 1.85 1.85 2.00 2.10 2.13 1.73 1.57 1.56 1.62 1.72 1.78 1.98 2.21 2.39 2.51 2.68 2.86 2.90
3.06 2.88 2.78 2.74 2.64 2.54 2.50 2.71 2.84 2.91 2.93 2.98 2.93 3.05 3.00 2.86 2.86 2.83 2.90 3.01 2.85 2.47 2.23 2.01 1.86 1.84 1.87 1.94 2.08 2.07 1.75 1.75 1.61 1.64 1.69 1.64 1.66 1.76 1.85 1.94 2.06 2.20 2.32
2.51 2.38 2.33 2.36 2.33 2.29 2.34 2.53 2.58 2.52 2.59 2.63 2.69 2.82 2.79 2.73 2.78 2.75 2.86 3.04 3.17 2.93 2.54 2.20 2.06 1.93 1.99 2.05 2.25 1.87 1.87 2.03 1.81 1.68 1.62 1.57 1.53 1.47 1.44 1.49 1.54 1.59 1.65
2.22 2.15 2.10 2.11 2.15 2.12 2.13 2.26 2.36 2.40 2.39 2.35 2.46 2.65 2.68 2.64 2.79 2.87 2.97 3.01 3.07 3.08 2.81 2.33 2.21 2.05 2.05 1.97 2.33 2.00 1.97 2.06 1.77 1.56 1.44 1.36 1.29 1.24 1.26 1.29 1.33 1.39 1.43
2.38 2.20 2.09 2.15 2.16 2.09 2.07 2.09 2.02 2.10 2.20 2.24 2.28 2.39 2.50 2.60 2.74 2.78 2.86 2.87 2.93 2.98 2.85 2.43 2.29 2.27 2.28 2.22 2.26 2.12 2.02 1.94 1.74 1.61 1.40 1.27 1.21 1.17 1.15 1.20 1.24 1.25 1.30
2.10 2.06 2.04 2.09 2.08 2.00 2.00 1.93 1.80 1.87 1.98 2.05 2.10 2.19 2.25 2.34 2.45 2.41 2.50 2.53 2.57 2.69 2.69 2.59 2.53 2.44 2.42 2.36 2.26 2.08 1.78 1.56 1.51 1.53 1.36 1.28 1.23 1.19 1.20 1.24 1.25 1.26 1.24
2.01 2.04 2.07 2.08 2.08 2.03 2.01 1.95 1.91 1.85 1.77 1.79 1.87 1.92 1.97 2.07 2.04 1.99 2.03 2.02 2.12 2.25 2.49 2.48 2.40 2.51 2.44 2.40 2.50 2.18 1.90 1.86 1.41 1.38 1.29 1.25 1.24 1.19 1.17 1.16 1.15 1.14 1.12
1.85 1.95 1.92 1.88 1.87 1.80 1.71 1.74 1.80 1.79 1.70 1.67 1.66 1.67 1.65 1.60 1.59 1.66 1.69 1.76 1.91 2.20 2.41 2.37 2.21 2.21 2.26 2.22 2.40 2.27 2.15 2.03 1.73 1.31 1.27 1.15 1.16 1.15 1.11 1.04 1.00 0.97 0.98
1.57 1.69 1.68 1.67 1.63 1.53 1.42 1.47 1.54 1.55 1.60 1.58 1.56 1.52 1.43 1.40 1.44 1.42 1.35 1.51 1.78 2.08 2.21 2.24 2.18 2.09 2.05 2.10 2.11 1.98 1.98 2.02 1.93 1.58 1.50 1.23 1.11 1.12 1.14 1.11 1.06 0.97 0.88
1.56 1.57 1.56 1.50 1.41 1.22 1.25 1.28 1.26 1.32 1.43 1.51 1.50 1.40 1.30 1.27 1.26 1.22 1.20 1.30 1.48 1.66 1.84 1.99 2.00 1.96 1.94 1.97 2.05 2.04 2.03 2.08 2.01 1.75 1.76 1.58 1.33 1.40 1.33 1.18 1.10 1.00 0.94
1.57 1.48 1.41 1.33 1.24 1.17 1.15 1.11 1.15 1.23 1.34 1.41 1.45 1.46 1.26 1.09 1.20 1.20 1.22 1.26 1.27 1.35 1.50 1.72 1.84 1.80 1.85 1.96 2.19 2.15 2.16 2.15 2.04 1.86 1.98 1.91 1.72 1.63 1.34 1.15 1.17 1.03 0.94
1.53 1.45 1.34 1.25 1.21 1.09 1.06 1.03 1.06 1.12 1.29 1.34 1.34 1.36 1.39 1.34 1.25 1.27 1.25 1.25 1.22 1.26 1.34 1.44 1.61 1.66 1.67 1.82 2.07 2.09 2.12 2.11 1.98 1.85 1.97 2.02 1.74 1.65 1.32 1.36 1.26 1.05 0.94
1.45 1.36 1.29 1.28 1.26 1.11 1.03 0.97 1.04 1.13 1.26 1.24 1.17 1.17 1.16 1.16 1.18 1.25 1.32 1.41 1.39 1.33 1.18 1.23 1.29 1.40 1.53 1.62 1.72 1.82 1.98 2.15 2.04 1.84 1.85 1.98 1.82 1.70 1.52 1.52 1.34 1.14 1.05
1.39 1.27 1.22 1.25 1.26 1.20 1.04 0.92 0.99 1.04 1.08 1.10 1.13 1.10 1.03 0.97 0.97 1.00 1.07 1.30 1.44 1.36 1.27 1.26 1.36 1.50 1.57 1.62 1.61 1.67 1.87 2.05 2.04 2.02 1.82 1.92 1.90 1.89 1.81 1.53 1.40 1.33 1.28